PEGASUS (42784 NORAD) Tracking and Keplerian Element Data

This shows tracking and keplerian element data for the satellite.

Feedback or suggestion? Click here.




ElementValue
Catalog42784
NamePEGASUS
Epoch Orbit10181
Epoch Day114.15371808
Epoch Year2019
RAAN173.1765
Inclination97.357
Eccentricity0.0013711
Argument of Perigee69.1009
Mean Anonmoly291.1694
Mean Motion15.2235989
Decay Rate1.099E-05
L11 42784U 17036V 19114.15371808 .00001099 00000-0 50512-4 0 9997
L22 42784 97.3570 173.1765 0013711 69.1009 291.1694 15.22359890101813

Live tracking and technical data element details for PEGASUS (NORAD 42784). PEGASUS can be tracked NOW for your location showing map with azimuth and elevation plus other details from your city location.

Track the satellite on the map from your city or location and see movement details for azimuth, elevation, latitude, longitude, range, height, and movement on the map or in text.







IsCatalogInMostPopularTable: catalog: 42784, numindb: 192
Update: records affected: 1



GetName: 42784 PEGASUS

Hit Count: updated at: Thu, 25 Apr 2019 19:51:45 GMT